| time (UTC) | temp F | wind direction | speed knots | gust knots | rain 1hr in | rain 24hr in | rain mn in | humidity % | barometer mb |
| 20260906220038 | 71 | 50 | 0.0 | 1.7 | 0.00 | 0.00 | 0.00 | 66 | 1011.9 |
| 20260906214531 | 71 | 50 | 0.9 | 2.6 | 0.00 | 0.00 | 0.00 | 65 | 1011.9 |
| 20260906213030 | 71 | 50 | 0.9 | 3.5 | 0.00 | 0.00 | 0.00 | 65 | 1012.0 |
| 20260906211530 | 71 | 51 | 1.7 | 4.3 | 0.00 | 0.00 | 0.00 | 67 | 1012.0 |
| 20260906210030 | 71 | 53 | 1.7 | 4.3 | 0.00 | 0.00 | 0.00 | 65 | 1012.0 |
| 20260906204528 | 73 | 55 | 1.7 | 5.2 | 0.00 | 0.00 | 0.00 | 64 | 1012.0 |
| 20260906203027 | 75 | 144 | 0.0 | 1.7 | 0.00 | 0.00 | 0.00 | 63 | 1012.0 |
| 20260906201524 | 76 | 144 | 0.0 | 1.7 | 0.00 | 0.00 | 0.00 | 61 | 1012.1 |
| 20260906200022 | 76 | 144 | 0.0 | 0.0 | 0.00 | 0.00 | 0.00 | 61 | 1012.4 |
| 20260906194521 | 76 | 144 | 0.0 | 1.7 | 0.00 | 0.00 | 0.00 | 63 | 1012.5 |
| 20260906193019 | 75 | 144 | 0.0 | 0.0 | 0.00 | 0.00 | 0.00 | 60 | 1012.4 |
| 20260906191518 | 75 | 144 | 0.0 | 0.0 | 0.00 | 0.00 | 0.00 | 61 | 1012.6 |
| 20260906190018 | 75 | 144 | 0.0 | 0.9 | 0.00 | 0.00 | 0.00 | 60 | 1012.6 |
| 20260906184525 | 76 | 144 | 0.0 | 1.7 | 0.00 | 0.00 | 0.00 | 59 | 1012.8 |
| 20260906183013 | 76 | 144 | 0.0 | 0.0 | 0.00 | 0.00 | 0.00 | 62 | 1013.3 |
| 20260906181510 | 75 | 144 | 0.0 | 0.0 | 0.00 | 0.00 | 0.00 | 63 | 1013.5 |
| 20260906180005 | 75 | 144 | 0.0 | 0.9 | 0.00 | 0.00 | 0.00 | 61 | 1013.6 |
| 20260906174502 | 73 | 144 | 0.0 | 0.0 | 0.00 | 0.00 | 0.00 | 65 | 1013.6 |
| 20260906173116 | 70 | 144 | 0.0 | 0.0 | 0.00 | 0.00 | 0.00 | 67 | 1014.0 |
| 20260906171558 | 69 | 144 | 0.0 | 1.7 | 0.00 | 0.00 | 0.00 | 70 | 1014.1 |
| 20260906170053 | 71 | 144 | 0.0 | 0.9 | 0.00 | 0.00 | 0.00 | 63 | 1014.4 |